Location: Dvur Kralove nad Labem
(50.4330°N, 15.8170°E)
Time: 22:32:32
(UTC+02:00)

ISS - Pass Details

Date: 21 May 2022
Orbit: 414 x 420 km, 51.6° (Epoch: 30 June)

Event Time Altitude Azimuth Distance (km) Brightness Sun altitude
Rises 23:54:49 0° 285° (WNW) 2,367 0.5 -18.3°
Reaches altitude 10° 23:56:55 10° 284° (WNW) 1,500 -0.6 -18.4°
Maximum altitude 00:00:17 76° 199° (SSW) 434 -3.9 -18.5°
Enters shadow 00:00:36 68° 145° (SE) 454 -3.9 -18.5°
